TimeEDT,TemperatureF,Dew PointF,Humidity,Sea Level PressureIn,VisibilityMPH,Wind Direction,Wind SpeedMPH,Gust SpeedMPH,PrecipitationIn,Events,Conditions,WindDirDegrees,DateUTC
12:51 AM,54.0,53.1,97,29.81,10.0,Calm,Calm,-,N/A,,Mostly Cloudy,0,2013-06-13 04:51:00
1:51 AM,52.0,51.1,97,29.81,10.0,Calm,Calm,-,N/A,,Mostly Cloudy,0,2013-06-13 05:51:00
2:51 AM,50.0,50.0,100,29.81,10.0,Calm,Calm,-,N/A,,Clear,0,2013-06-13 06:51:00
3:51 AM,48.0,48.0,100,29.79,4.0,Calm,Calm,-,N/A,,Clear,0,2013-06-13 07:51:00
4:51 AM,46.9,46.9,100,29.81,9.0,Calm,Calm,-,N/A,,Clear,0,2013-06-13 08:51:00
5:51 AM,51.1,50.0,96,29.82,10.0,ENE,3.5,-,N/A,,Overcast,70,2013-06-13 09:51:00
6:51 AM,57.0,52.0,83,29.80,10.0,Calm,Calm,-,N/A,,Clear,0,2013-06-13 10:51:00
7:51 AM,61.0,53.1,75,29.81,10.0,Calm,Calm,-,N/A,,Clear,0,2013-06-13 11:51:00
8:51 AM,64.0,52.0,65,29.79,10.0,Calm,Calm,-,N/A,,Clear,0,2013-06-13 12:51:00
9:51 AM,64.9,51.1,61,29.79,10.0,Calm,Calm,-,N/A,,Clear,0,2013-06-13 13:51:00
10:51 AM,66.9,53.1,61,29.79,10.0,SSE,4.6,-,N/A,,Clear,150,2013-06-13 14:51:00
11:51 AM,66.9,50.0,54,29.77,10.0,SE,4.6,-,N/A,,Clear,130,2013-06-13 15:51:00
12:51 PM,66.9,51.1,57,29.77,10.0,SSE,6.9,-,N/A,,Mostly Cloudy,150,2013-06-13 16:51:00
1:51 PM,64.9,55.0,70,29.75,10.0,SSE,6.9,-,0.00,Rain,Light Rain,160,2013-06-13 17:51:00
2:51 PM,61.0,57.9,90,29.73,8.0,South,5.8,-,0.02,Rain,Light Rain,190,2013-06-13 18:51:00
3:51 PM,59.0,57.0,93,29.75,9.0,South,8.1,-,0.03,Rain,Light Rain,180,2013-06-13 19:51:00
4:48 PM,59.0,57.2,94,29.74,5.0,SSE,5.8,-,0.03,Rain,Light Rain,150,2013-06-13 20:48:00
4:51 PM,59.0,57.9,96,29.75,5.0,South,9.2,-,0.03,Rain,Light Rain,170,2013-06-13 20:51:00
5:24 PM,57.2,55.4,94,29.74,5.0,South,10.4,-,0.02,Rain,Light Rain,180,2013-06-13 21:24:00
5:34 PM,55.4,53.6,94,29.75,8.0,South,9.2,-,0.03,Rain,Light Rain,180,2013-06-13 21:34:00
5:51 PM,55.9,55.0,97,29.75,8.0,South,6.9,-,0.04,Rain,Light Rain,190,2013-06-13 21:51:00
6:51 PM,55.0,54.0,96,29.75,8.0,South,3.5,-,0.02,Rain,Light Rain,190,2013-06-13 22:51:00
7:51 PM,55.0,54.0,96,29.75,10.0,Calm,Calm,-,0.02,Rain,Light Rain,0,2013-06-13 23:51:00
8:51 PM,55.0,54.0,96,29.75,9.0,NE,3.5,-,0.01,Rain,Light Rain,50,2013-06-14 00:51:00
9:51 PM,54.0,54.0,100,29.75,9.0,NNE,3.5,-,0.01,Rain,Light Rain,30,2013-06-14 01:51:00
10:51 PM,54.0,53.1,97,29.74,8.0,Calm,Calm,-,0.01,Rain,Light Rain,0,2013-06-14 02:51:00
11:51 PM,54.0,54.0,100,29.73,8.0,NE,3.5,-,0.01,Rain,Light Rain,40,2013-06-14 03:51:00